星链-30707 (STARLINK-30707 )

导读

STARLINK-30707是美国SpaceX公司西雅图分部制造运营的星链卫星,于2023年9月25日从美国空军西部试验场由猎鹰9火箭发射升空。卫星为STARLINK V2M型号,湿质量730千克,运行在近地低轨道(LEO)上,执行商业通信任务,是星链星座中负责全球互联通信网络部署的一颗卫星。

基本信息
目录编号:
57949
目录名称:
STARLINK-30707
国际标识:
2023-148Q
轨道中心:
EARTH
卫星名称:
星链-30707
卫星全名:
星链-30707 (STARLINK-30707 )
卫星状态:
在轨 (已飞行1082 天)
发射日期:
2023-09-25 UTC
国别 :
美国 (US)
星等 :
--
该卫星已列入 空间交会检测服务 Space Conjunction Data Service (SCDS) ,当前飞行风险评估等级: 高风险
轨道信息
数据来源 国际轨道数据 AOE轨道数据
星历时间 2026-09-11T07:57:28+0800
14小时前
查看轨道信息
2026-09-10T23:00:00+0800
23小时前
查看轨道信息
半长轴 6840.879km 6840.884km
偏心率 0.0001371 0.0001289
轨道倾角 53.159° 53.158°
近地点辐角 84.999° 81.007°
升交点赤经 240.017° 241.766°
平近点角 275.117° 16.257°
近地点 461.804km 461.865km
远地点 463.68km 463.629km
周期 93.849分钟 93.849分钟
每日圈数 15.34387 15.343855
详细信息
固有亮度:
5
最大亮度:
0.3
卫星平台:
Starlink v2.0 mini
覆盖范围:
全球
运营商:
太空探索技术公司
运营商所在国:
美国
制造商(研发单位):
太空探索技术公司
制造商所在国:
美国
使用方式:
暂无
卫星简介
星链(Starlink)计划是由太空探索技术公司(SpaceX)提出的一个巨型低轨卫星互联网星座项目,计划在2019年至2024年间在太空搭建由约1.2万颗卫星组成的“星链”网络,其中1584颗将部署在地球上空550千米处的近地轨道,并从2020年开始工作。该卫星仍在工作。
2D轨道图
3D轨道图
轨道高度分析图
轨道倾角分析图
轨道综合分析图
查看轨道综合分析图
与全量物体交会距离演化趋势
与全量物体交会风险概率演化趋势